Weather History for Marietta, GA

Change the Weather History Date:

Tuesday, August 19, 2014

  Actual Average Record
Temperature  
Mean Temperature 78 °F -  
Max Temperature 87 °F 85 °F 98 °F (1999)
Min Temperature 69 °F 68 °F 68 °F (2002)
Cooling Degree Days 13    
Growing Degree Days 28 (Base 50)    
Moisture  
Dew Point 70 °F    
Average Humidity 91    
Maximum Humidity 100    
Minimum Humidity 59    
Precipitation  
Precipitation 0.02 in - - ()
Sea Level Pressure  
Sea Level Pressure 29.92 in    
Wind  
Wind Speed 5 mph (SW)    
Max Wind Speed 14 mph    
Max Gust Speed 31 mph    
Visibility 9 miles    
Events Rain    
Averages and records for this station are not official NWS values.
T = Trace of Precipitation, MM = Missing Value Source: NWS Daily Summary

Daily Weather History Graph

Daily Weather History Graph

Search for Another Location

Airport:

Trip Planner

Search our weather history database for the weather conditions in past years. The results will help you decide how hot, cold, wet, or windy it might be!

Date:

Astronomy

Aug. 19, 2014 Rise Set
Actual Time 7:02 AM EDT 8:20 PM EDT
Civil Twilight 6:36 AM EDT 8:46 PM EDT
Nautical Twilight 6:05 AM EDT 9:17 PM EDT
Astronomical Twilight 5:32 AM EDT 9:49 PM EDT
Moon 1:58 AM EDT (8/19) 4:11 PM EDT (8/19)
Length of Visible Light 14h 09m
Length of Day
13h 17m
Waning Crescent, 29% of the Moon is Illuminated
Aug 19
Waning Crescent
Aug 25
New
Sep 2
First Quarter
Sep 8
Full
Sep 15
Last Quarter

Hourly Weather History & Observations

Time (EDT) Temp. Heat Index Dew Point Humidity Pressure Visibility Wind Dir Wind Speed Gust Speed Precip Events Conditions
12:58 AM 70.9 °F - 69.1 °F 94% 29.91 in 10.0 mi SSW 3.5 mph - N/A   Clear
1:23 AM 69.8 °F - 69.8 °F 100% 29.93 in 10.0 mi South 2.3 mph - N/A   Mostly Cloudy
1:28 AM 69.8 °F - 69.8 °F 100% 29.93 in 10.0 mi South 2.3 mph - N/A   Scattered Clouds
1:48 AM 71.6 °F - 69.8 °F 94% 29.93 in 10.0 mi Variable 1.2 mph - N/A   Mostly Cloudy
1:58 AM 70.7 °F - 69.4 °F 96% 29.91 in 10.0 mi South 2.3 mph - N/A   Mostly Cloudy
2:08 AM 69.8 °F - 69.8 °F 100% 29.92 in 10.0 mi SSW 2.3 mph - N/A   Overcast
2:13 AM 69.8 °F - 69.8 °F 100% 29.92 in 10.0 mi SSW 3.5 mph - N/A   Overcast
2:18 AM 69.8 °F - 69.8 °F 100% 29.91 in 10.0 mi South 2.3 mph - N/A   Overcast
2:23 AM 69.8 °F - 69.8 °F 100% 29.92 in 10.0 mi SSW 5.8 mph - N/A   Mostly Cloudy
2:24 AM 69.8 °F - 69.8 °F 100% 29.92 in 10.0 mi SSW 4.6 mph - N/A   Overcast
2:29 AM 69.8 °F - 69.8 °F 100% 29.91 in 10.0 mi South 3.5 mph - N/A   Overcast
2:39 AM 69.8 °F - 69.8 °F 100% 29.91 in 10.0 mi SSW 4.6 mph - N/A   Overcast
2:44 AM 69.8 °F - 69.8 °F 100% 29.91 in 10.0 mi South 4.6 mph - N/A   Overcast
2:49 AM 69.8 °F - 69.8 °F 100% 29.91 in 10.0 mi SSW 3.5 mph - N/A   Overcast
2:58 AM 70.5 °F - 69.6 °F 97% 29.88 in 10.0 mi SSW 3.5 mph - N/A   Overcast
3:03 AM 69.8 °F - 69.8 °F 100% 29.91 in 10.0 mi SSW 5.8 mph - N/A   Overcast
3:08 AM 69.8 °F - 69.8 °F 100% 29.90 in 9.0 mi SSW 4.6 mph - N/A   Light Drizzle
3:13 AM 69.8 °F - 69.8 °F 100% 29.90 in 8.0 mi South 3.5 mph - N/A   Light Drizzle
3:20 AM 69.8 °F - 69.8 °F 100% 29.90 in 10.0 mi South 4.6 mph - N/A   Overcast
3:30 AM 69.8 °F - 69.8 °F 100% 29.90 in 10.0 mi Variable 4.6 mph - N/A   Overcast
3:35 AM 69.8 °F - 69.8 °F 100% 29.90 in 10.0 mi SSW 3.5 mph - N/A   Overcast
3:40 AM 69.8 °F - 69.8 °F 100% 29.90 in 10.0 mi South 4.6 mph - N/A   Overcast
3:45 AM 69.8 °F - 69.8 °F 100% 29.90 in 10.0 mi SSW 4.6 mph - N/A   Overcast
3:50 AM 69.8 °F - 69.8 °F 100% 29.90 in 10.0 mi South 4.6 mph - N/A   Overcast
3:51 AM 71.6 °F - 69.8 °F 94% 29.90 in 10.0 mi South 4.6 mph - N/A   Overcast
3:56 AM 71.6 °F - 69.8 °F 94% 29.90 in 10.0 mi SSW 4.6 mph - N/A   Overcast
3:58 AM 70.7 °F - 70.2 °F 98% 29.87 in 10.0 mi SSW 4.6 mph - 0.00 in   Overcast
4:03 AM 71.6 °F - 69.8 °F 94% 29.90 in 10.0 mi SSW 4.6 mph - N/A   Overcast
4:08 AM 71.6 °F - 69.8 °F 94% 29.90 in 10.0 mi SSW 5.8 mph - N/A   Overcast
4:23 AM 71.6 °F - 69.8 °F 94% 29.90 in 8.0 mi South 4.6 mph - N/A   Overcast
4:24 AM 71.6 °F - 69.8 °F 94% 29.90 in 8.0 mi South 5.8 mph - N/A   Light Drizzle
4:29 AM 71.6 °F - 69.8 °F 94% 29.90 in 8.0 mi SSW 6.9 mph - N/A   Light Drizzle
4:33 AM 71.6 °F - 69.8 °F 94% 29.90 in 10.0 mi SSW 4.6 mph - N/A   Mostly Cloudy
4:43 AM 71.6 °F - 69.8 °F 94% 29.90 in 9.0 mi SW 4.6 mph - N/A   Light Drizzle
4:48 AM 71.6 °F - 69.8 °F 94% 29.90 in 10.0 mi SSW 3.5 mph - N/A   Light Drizzle
4:49 AM 71.6 °F - 69.8 °F 94% 29.90 in 10.0 mi SW 3.5 mph - N/A   Mostly Cloudy
4:54 AM 71.6 °F - 69.8 °F 94% 29.91 in 10.0 mi SW 6.9 mph - N/A   Overcast
4:58 AM 71.6 °F - 69.8 °F 94% 29.88 in 10.0 mi SW 6.9 mph - 0.00 in   Overcast
5:03 AM 71.6 °F - 69.8 °F 94% 29.91 in 10.0 mi SSW 6.9 mph - N/A   Overcast
5:11 AM 71.6 °F - 69.8 °F 94% 29.90 in 10.0 mi SW 8.1 mph - N/A   Light Drizzle
5:21 AM 71.6 °F - 69.8 °F 94% 29.90 in 10.0 mi SW 8.1 mph - N/A   Overcast
5:31 AM 71.6 °F - 69.8 °F 94% 29.91 in 10.0 mi SW 6.9 mph - N/A   Overcast
5:36 AM 71.6 °F - 69.8 °F 94% 29.91 in 10.0 mi WSW 9.2 mph - N/A   Overcast
5:41 AM 71.6 °F - 69.8 °F 94% 29.91 in 10.0 mi WSW 8.1 mph - N/A   Overcast
5:46 AM 71.6 °F - 71.6 °F 100% 29.91 in 10.0 mi WSW 11.5 mph - N/A   Overcast
5:51 AM 71.6 °F - 69.8 °F 94% 29.91 in 10.0 mi WSW 10.4 mph - N/A   Overcast
5:56 AM 71.6 °F - 69.8 °F 94% 29.91 in 10.0 mi WSW 10.4 mph - N/A   Overcast
5:58 AM 71.2 °F - 70.7 °F 98% 29.88 in 10.0 mi WSW 10.4 mph - 0.00 in   Overcast
6:03 AM 71.6 °F - 69.8 °F 94% 29.91 in 10.0 mi WSW 10.4 mph - N/A   Overcast
6:04 AM 71.6 °F - 69.8 °F 94% 29.91 in 10.0 mi WSW 10.4 mph - N/A   Overcast
6:09 AM 71.6 °F - 69.8 °F 94% 29.91 in 10.0 mi West 12.7 mph 18.4 mph N/A   Overcast
6:58 AM 71.6 °F - 70.0 °F 95% 29.91 in 6.0 mi West 10.4 mph - N/A   Overcast
7:26 AM 71.6 °F - 69.8 °F 94% 29.94 in 6.0 mi West 10.4 mph - N/A   Overcast
7:58 AM 72.0 °F - 70.2 °F 94% 29.94 in 6.0 mi West 8.1 mph - N/A   Overcast
8:16 AM 71.6 °F - 69.8 °F 94% 29.96 in 5.0 mi West 9.2 mph - N/A   Mostly Cloudy
8:23 AM 71.6 °F - 69.8 °F 94% 29.96 in 6.0 mi West 8.1 mph - N/A   Mostly Cloudy
8:37 AM 73.4 °F - 69.8 °F 88% 29.96 in 7.0 mi West 10.4 mph - N/A   Mostly Cloudy
8:58 AM 73.9 °F - 70.9 °F 90% 29.95 in 7.0 mi West 10.4 mph - N/A   Mostly Cloudy
9:18 AM 73.4 °F - 71.6 °F 94% 29.97 in 7.0 mi West 9.2 mph - N/A   Overcast
9:58 AM 74.3 °F - 71.1 °F 90% 29.96 in 7.0 mi West 13.8 mph - N/A   Overcast
10:58 AM 75.9 °F - 71.4 °F 86% 29.96 in 7.0 mi West 10.4 mph - N/A   Overcast
11:42 AM 77.0 °F - 71.6 °F 83% 29.98 in 7.0 mi WNW 8.1 mph - N/A   Overcast
11:58 AM 78.3 °F - 71.8 °F 80% 29.95 in 7.0 mi NW 5.8 mph - N/A   Mostly Cloudy
12:53 PM 80.6 °F 84.6 °F 71.6 °F 74% 29.97 in 7.0 mi WNW 9.2 mph - N/A   Mostly Cloudy
12:58 PM 80.6 °F 84.6 °F 71.6 °F 74% 29.95 in 7.0 mi West 8.1 mph - N/A   Mostly Cloudy
1:26 PM 80.6 °F 84.6 °F 71.6 °F 74% 29.96 in 7.0 mi West 8.1 mph - N/A   Mostly Cloudy
1:58 PM 82.0 °F 86.7 °F 71.8 °F 71% 29.93 in 10.0 mi West 8.1 mph - N/A   Mostly Cloudy
2:25 PM 84.2 °F 90.9 °F 73.4 °F 70% 29.94 in 10.0 mi Variable 3.5 mph - N/A   Mostly Cloudy
2:41 PM 84.2 °F 89.6 °F 71.6 °F 66% 29.94 in 10.0 mi NW 12.7 mph 19.6 mph N/A   Mostly Cloudy
2:58 PM 83.7 °F 88.3 °F 70.9 °F 65% 29.91 in 10.0 mi WNW 10.4 mph - N/A   Mostly Cloudy
3:58 PM 86.7 °F 92.1 °F 70.7 °F 59% 29.89 in 10.0 mi West 11.5 mph - N/A   Mostly Cloudy
4:58 PM 86.0 °F 90.7 °F 70.2 °F 59% 29.89 in 10.0 mi West 9.2 mph - N/A   Scattered Clouds
5:58 PM 87.6 °F 93.9 °F 71.8 °F 59% 29.90 in 10.0 mi West 12.7 mph - N/A   Mostly Cloudy
6:17 PM 77.0 °F - 68.0 °F 74% 29.95 in 10.0 mi NNW 13.8 mph 31.1 mph N/A Rain Light Rain Showers
6:46 PM 71.6 °F - 69.8 °F 94% 29.93 in 10.0 mi Variable 3.5 mph - N/A   Mostly Cloudy
6:58 PM 71.8 °F - 69.1 °F 91% 29.91 in 10.0 mi Calm Calm - 0.02 in   Mostly Cloudy
7:58 PM 74.7 °F - 70.5 °F 87% 29.91 in 10.0 mi East 3.5 mph - N/A   Overcast
8:58 PM 73.6 °F - 70.5 °F 90% 29.92 in 10.0 mi SSW 2.3 mph - N/A   Overcast
9:58 PM 73.9 °F - 70.2 °F 88% 29.93 in 10.0 mi SW 2.3 mph - N/A   Mostly Cloudy
10:58 PM 72.9 °F - 70.2 °F 91% 29.94 in 10.0 mi Calm Calm - N/A   Mostly Cloudy
11:58 PM 73.8 °F - 70.7 °F 90% 29.95 in 10.0 mi West 4.6 mph - N/A   Clear